GSAT0217 (GALILEO 21)

Last updated on Tue Jul 01 2025 00:02:33 GMT+0000 (Coordinated Universal Time)

1 43057U 17079C 25180.40501717 .00000022 00000+0 00000+0 0 9996 2 43057 55.1856 231.2110 0005442 277.5383 82.4811 1.70474527 46978
UTC large
Height (km)
Speed (km/s)
/
Latitude / Longitude
Inclination (degrees)
Orbital Period (minutes)
Azimuth
Elevation
Range (km)
Doppler Factor

Next 0 passes for location: London (51.5072 / 0.1276)

Sorry there are no passes over London.